THOR ABLESTAR DEB       
1 01504U 65065A   19264.55474483  .00000084  00000-0  13647-3 0  9990
2 01504  89.8332 267.0809 0066630   6.0187 121.9410 13.39450380638629
THOR ABLESTAR R/B       
1 01508U 65065B   19264.11461372  .00000010  00000-0  28657-5 0  9997
2 01508  90.1464 269.4451 0043644  73.7388 353.3765 13.35955904637369
DODECAPOLE 2            
1 01510U 65065C   19265.33469387  .00001342  00000-0  99558-3 0  9994
2 01510  90.0335  13.5861 0038406   1.8896 358.2418 13.94371116689466
THOR ABLESTAR DEB       
1 01511U 65065D   19264.87133403  .00000042  00000-0  67410-4 0  9999
2 01511  89.8634 228.1054 0066889 282.9558 137.8385 13.33976140633044
TEMPSAT 1               
1 01512U 65065E   19264.87877684  .00000034  00000-0  51008-4 0  9993
2 01512  89.8604 229.5342 0068495 318.3845  99.8011 13.33421929632160
OPS 8464 (TRANSIT 5B-7) 
1 01514U 65065F   19264.88655781  .00000033  00000-0  47836-4 0  9991
2 01514  89.8392 248.0256 0068375 248.3940 169.8241 13.34950328633515
NAVSPASUR ROD 1         
1 01515U 65065G   19264.95670817  .00000317  00000-0  48954-3 0  9993
2 01515  89.8921 225.1970 0057995 209.2564 216.3713 13.48687560648953
CALSPHERE 4A            
1 01520U 65065H   19264.18322590  .00000024  00000-0  30224-4 0  9993
2 01520  90.0455 128.0608 0069117 203.1782 306.1565 13.35795525634526
THOR ABLESTAR DEB       
1 01521U 65065K   19264.39700813  .00000034  00000-0  51370-4 0  9991
2 01521  89.8975 220.4616 0068615 330.8993 147.1524 13.33151618631926
THOR ABLESTAR DEB       
1 01522U 65065L   19263.92914140  .00000018  00000-0  21232-4 0  9996
2 01522  90.1697  94.1782 0069703 322.8763 165.7435 13.33631235631721
PORCUPINE 2             
1 01577U 65065J   19264.45079966  .00000073  00000-0  12326-3 0  9997
2 01577  89.9051 220.4385 0069091 201.9861 276.9682 13.35765294634503
THOR ABLESTAR DEB       
1 03810U 65065P   19264.92349609  .00000161  00000-0  23629-3 0  9991
2 03810  89.8576 234.0827 0061654 195.6654 229.7597 13.49658599926806
THOR ABLESTAR DEB       
1 05265U 65065Q   19264.48420920  .00000083  00000-0  13312-3 0  9995
2 05265  90.1395 268.0500 0041845 166.8103 346.2190 13.41559111642867
DODECAPOLE 2 DEB        
1 41734U 65065U   19264.35443766  .00000802  00000-0  57025-3 0  9993
2 41734  90.0295  13.6366 0039935   1.7116 358.4190 13.96393322157774